Location: G�migny
(47.9646°N, 1.6950°E)
Time: 09:40:13
(UTC+00:00)

Cosmos 1844 Rocket - Pass Details

Date: 23 October 2019
Orbit: 826 x 843 km, 71.0° (Epoch: 14 November)

Event Time Altitude Azimuth Distance (km) Brightness Sun altitude
Rises 17:31:37 0° 233° (SW) 3,388 7.1 -7.5°
Reaches altitude 10° 17:34:15 10° 242° (WSW) 2,455 6.5 -8.0°
Maximum altitude 17:39:25 36° 309° (NW) 1,301 4.2 -8.8°
Drops below altitude 10° 17:44:36 10° 15° (NNE) 2,458 4.9 -9.7°
Sets 17:47:15 0° 24° (NNE) 3,392 5.5 -10.1°
